COSMOS 249 DEB, 19362

Orbit data source: Space-Track

COSMOS 249 DEB, 19362 is space debris in LEO originally from a launch on Sun, 20 Oct 1968 UTC launched from the Tyuratam Missile And Space Complex (TTMTR). Debris objects in space refer to the collection of defunct objects orbiting the Earth. Examples of debris include non-operational satellites, rocket bodies, and fragments generated from explosions, collisions, or faulty payload assembly.

Loading next visibility...
Identifier
19362, 1968-091DJ
Orbit
LEO
Country
Flag of CISCIS
Related business
Manufacturer
Unknown
Mission
Spacecraft
Bus & Motor
Unknown
Mass
Unknown
Launch date (UTC)
1968-10-20 (58 years ago)
Launch vehicle
Unknown
Launch site
Tyuratam Missile And Space Complex (TTMTR)
Object type
Payload
Rocket body
Debris
Shape & HBR
Unknown shape, 0.1 m
Radar Cross Section
Small (<0.1 m²)

Expand to show TLE details & history
Last TLE update: 3 days ago

TLE from 3 days ago
0 COSMOS 249 DEB
1 19362U 68091DJ  26169.84015263  .00006371  00000-0  82816-3 0  9993
2 19362  62.7659 324.9275 0467441  57.3080 307.2168 14.26532280920202
Epoch: 2026-06-18T20:09Z
TLE epoch observation values (Epoch: 2026-06-18T20:09:49.187Z)
Latitude
0.00007°
Longitude
115.39488°
Altitude
612.447 km
Speed
7.654 km/s
True Right ascension
21h 39m 42s
True Declination
0° 00' 00"
Sunlit
Object was in full shadow at epoch
Visualization orbit readout
Latitude
Unknown
Longitude
Unknown
Altitude
Unknown
Speed
Unknown
Apparent Right ascension
Unknown
Apparent Declination
Unknown
Sunlit
N/A
Visualization observer readout
Local Sidereal Time
00:04:33
Azimuth
Unknown
Elevation
Unknown
Doppler factor
Unknown
Orbital elements
Apogee altitude
1,137.845 km
Perigee altitude
466.568 km
Semi-major axis
7,180.343 km
Eccentricity
0.04674
Inclination
62.7659°
RAAN
324.9275°
Arg. of periapsis
57.308°
True anomaly
302.79952°
Mean anomaly
307.2168°
Eccentric anomaly
305.02355°
Mean motion
3.56718 °/min
Orbital period
100.92 mins
BSTAR
0.00082816
Loading maneuver chart data...
Computing Atmospheric mass density...

Documentation

Showing up to 5 results
|